Location: Castellar de la Frontera
(36.3200°N, 5.4500°W)
Time: 04:23:55
(UTC+02:00)

ISS - Visible Passes

Search period start: 29 July 2021 00:00
Search period end: 08 August 2021 00:00
Orbit: 419 x 421 km, 51.6° (Epoch: 28 July)

Date Brightness Start Highest point End Pass type
(mag) Time Alt. Az. Time Alt. Az. Time Alt. Az.
29 Jul -2.1 23:12:23 10° NNW 23:15:13 24° NNE 23:15:55 22° NE visible
30 Jul -1.5 22:25:25 10° NNW 22:27:43 17° NNE 22:30:00 10° ENE visible
31 Jul -1.8 00:01:28 10° NW 00:03:15 28° WNW 00:03:15 28° WNW visible
31 Jul -3.8 23:14:08 10° NW 23:17:30 69° NE 23:17:40 67° ENE visible
01 Aug -2.9 22:26:55 10° NW 22:30:07 38° NE 22:32:07 19° E visible
02 Aug -0.9 00:04:20 10° W 00:05:06 14° W 00:05:06 14° W visible
02 Aug -2.6 23:16:27 10° WNW 23:19:29 32° SW 23:19:37 32° SW visible
03 Aug -3.5 22:28:53 10° NW 22:32:13 62° SW 22:34:13 22° SSE visible
05 Aug -1.4 22:31:42 10° W 22:34:02 18° SW 22:36:22 10° S visible
